| time (UTC) | temp F | wind direction | speed knots | gust knots | rain 1hr in | rain 24hr in | rain mn in | humidity % | barometer mb |
| 20260505004204 | 50 | 23 | 5.2 | 11.3 | 0.00 | 0.00 | 0.00 | 15 | 1016.5 |
| 20260505003702 | 51 | 83 | 2.6 | 12.2 | 0.00 | 0.00 | 0.00 | 15 | 1016.3 |
| 20260505003159 | 51 | 43 | 6.1 | 12.2 | 0.00 | 0.00 | 0.00 | 15 | 1016.2 |
| 20260505002655 | 50 | 47 | 4.3 | 9.6 | 0.00 | 0.00 | 0.00 | 15 | 1016.3 |
| 20260505002153 | 50 | 62 | 9.6 | 15.6 | 0.00 | 0.00 | 0.00 | 15 | 1016.1 |
| 20260505001650 | 51 | 80 | 9.6 | 13.9 | 0.00 | 0.00 | 0.00 | 15 | 1016.2 |
| 20260505001148 | 51 | 44 | 7.8 | 14.8 | 0.00 | 0.00 | 0.00 | 15 | 1016.2 |
| 20260505000644 | 52 | 26 | 0.9 | 9.6 | 0.00 | 0.00 | 0.00 | 15 | 1016.2 |
| 20260505000142 | 53 | 59 | 5.2 | 11.3 | 0.00 | 0.00 | 0.00 | 15 | 1016.2 |
| 20260504235638 | 53 | 68 | 4.3 | 7.0 | 0.00 | 0.00 | 0.00 | 15 | 1016.2 |
| 20260504235135 | 52 | 71 | 2.6 | 9.6 | 0.00 | 0.00 | 0.00 | 15 | 1016.0 |
| 20260504234632 | 53 | 55 | 2.6 | 7.8 | 0.00 | 0.00 | 0.00 | 15 | 1016.1 |
| 20260504234130 | 53 | 65 | 4.3 | 12.2 | 0.00 | 0.00 | 0.00 | 15 | 1016.0 |
| 20260504233625 | 54 | 70 | 3.5 | 11.3 | 0.00 | 0.00 | 0.00 | 15 | 1015.7 |
| 20260504233121 | 56 | 24 | 8.7 | 13.0 | 0.00 | 0.00 | 0.00 | 15 | 1015.5 |
| 20260504232619 | 56 | 0 | 2.6 | 10.4 | 0.00 | 0.00 | 0.00 | 15 | 1015.7 |
| 20260504232116 | 56 | 16 | 3.5 | 14.8 | 0.00 | 0.00 | 0.00 | 15 | 1015.5 |
| 20260504231613 | 57 | 42 | 7.0 | 11.3 | 0.00 | 0.00 | 0.00 | 15 | 1015.4 |
| 20260504231109 | 54 | 51 | 5.2 | 12.2 | 0.00 | 0.00 | 0.00 | 15 | 1015.4 |
| 20260504230605 | 54 | 90 | 2.6 | 8.7 | 0.00 | 0.00 | 0.00 | 15 | 1015.3 |
| 20260504230104 | 55 | 286 | 6.1 | 12.2 | 0.00 | 0.00 | 0.00 | 15 | 1015.3 |
| 20260504225601 | 54 | 1 | 6.1 | 11.3 | 0.00 | 0.00 | 0.00 | 15 | 1015.4 |
| 20260504225058 | 55 | 340 | 7.0 | 10.4 | 0.00 | 0.00 | 0.00 | 15 | 1015.0 |
| 20260504224554 | 54 | 27 | 6.1 | 7.8 | 0.00 | 0.00 | 0.00 | 15 | 1015.2 |
| 20260504224052 | 53 | 298 | 4.3 | 13.0 | 0.00 | 0.00 | 0.00 | 15 | 1014.9 |
| 20260504223549 | 54 | 44 | 7.0 | 14.8 | 0.00 | 0.00 | 0.00 | 15 | 1015.0 |
| 20260504223044 | 55 | 351 | 4.3 | 11.3 | 0.00 | 0.00 | 0.00 | 15 | 1015.3 |
| 20260504222541 | 58 | 47 | 4.3 | 17.4 | 0.00 | 0.00 | 0.00 | 15 | 1015.2 |
| 20260504222039 | 57 | 302 | 0.0 | 12.2 | 0.00 | 0.00 | 0.00 | 15 | 1015.2 |
| 20260504221536 | 56 | 56 | 7.8 | 15.6 | 0.00 | 0.00 | 0.00 | 15 | 1015.2 |
| 20260504221032 | 56 | 57 | 13.0 | 16.5 | 0.00 | 0.00 | 0.00 | 15 | 1015.0 |
| 20260504220529 | 56 | 43 | 6.1 | 12.2 | 0.00 | 0.00 | 0.00 | 15 | 1015.5 |
| 20260504220026 | 56 | 3 | 6.1 | 14.8 | 0.00 | 0.00 | 0.00 | 15 | 1015.4 |
| 20260504215522 | 56 | 340 | 8.7 | 16.5 | 0.00 | 0.00 | 0.00 | 15 | 1015.5 |
| 20260504215020 | 58 | 63 | 5.2 | 13.9 | 0.00 | 0.00 | 0.00 | 15 | 1015.2 |
| 20260504214516 | 58 | 346 | 6.1 | 11.3 | 0.00 | 0.00 | 0.00 | 15 | 1015.4 |
| 20260504214012 | 58 | 328 | 6.1 | 10.4 | 0.00 | 0.00 | 0.00 | 15 | 1015.3 |
| 20260504213509 | 56 | 0 | 0.0 | 11.3 | 0.00 | 0.00 | 0.00 | 15 | 1015.6 |
| 20260504213006 | 56 | 46 | 7.0 | 11.3 | 0.00 | 0.00 | 0.00 | 15 | 1015.4 |
| 20260504212502 | 56 | 26 | 4.3 | 11.3 | 0.00 | 0.00 | 0.00 | 15 | 1015.5 |
| 20260504211959 | 56 | 355 | 7.8 | 17.4 | 0.00 | 0.00 | 0.00 | 15 | 1015.5 |
| 20260504211456 | 56 | 75 | 3.5 | 14.8 | 0.00 | 0.00 | 0.00 | 15 | 1015.7 |
| 20260504210953 | 58 | 64 | 2.6 | 13.0 | 0.00 | 0.00 | 0.00 | 15 | 1015.6 |
| 20260504210450 | 57 | 68 | 7.0 | 16.5 | 0.00 | 0.00 | 0.00 | 15 | 1016.0 |
| 20260504205947 | 57 | 7 | 3.5 | 10.4 | 0.00 | 0.00 | 0.00 | 15 | 1015.6 |
| 20260504205444 | 56 | 351 | 7.8 | 16.5 | 0.00 | 0.00 | 0.00 | 15 | 1015.4 |
| 20260504204943 | 59 | 76 | 2.6 | 13.0 | 0.00 | 0.00 | 0.00 | 15 | 1015.9 |
| 20260504204440 | 57 | 273 | 3.5 | 9.6 | 0.00 | 0.00 | 0.00 | 15 | 1016.0 |
| 20260504203940 | 55 | 307 | 5.2 | 8.7 | 0.00 | 0.00 | 0.00 | 15 | 1015.6 |
| 20260504203437 | 56 | 273 | 2.6 | 10.4 | 0.00 | 0.00 | 0.00 | 15 | 1015.9 |
| 20260504202933 | 55 | 283 | 4.3 | 10.4 | 0.00 | 0.00 | 0.00 | 15 | 1016.2 |
| 20260504202429 | 56 | 305 | 5.2 | 13.0 | 0.00 | 0.00 | 0.00 | 15 | 1016.1 |
| 20260504201926 | 56 | 25 | 5.2 | 10.4 | 0.00 | 0.00 | 0.00 | 15 | 1016.1 |
| 20260504201424 | 58 | 31 | 13.0 | 13.9 | 0.00 | 0.00 | 0.00 | 15 | 1016.0 |
| 20260504200921 | 56 | 36 | 8.7 | 15.6 | 0.00 | 0.00 | 0.00 | 15 | 1016.3 |
| 20260504200418 | 58 | 46 | 8.7 | 14.8 | 0.00 | 0.00 | 0.00 | 15 | 1016.2 |
| 20260504195914 | 57 | 304 | 5.2 | 11.3 | 0.00 | 0.00 | 0.00 | 15 | 1016.2 |
| 20260504195410 | 56 | 342 | 4.3 | 13.0 | 0.00 | 0.00 | 0.00 | 15 | 1016.2 |
| 20260504194907 | 57 | 353 | 7.8 | 14.8 | 0.00 | 0.00 | 0.00 | 15 | 1016.2 |
| 20260504194403 | 57 | 62 | 3.5 | 7.8 | 0.00 | 0.00 | 0.00 | 15 | 1016.3 |
| 20260504193859 | 56 | 87 | 6.1 | 12.2 | 0.00 | 0.00 | 0.00 | 15 | 1016.3 |
| 20260504193356 | 56 | 59 | 1.7 | 10.4 | 0.00 | 0.00 | 0.00 | 15 | 1016.3 |
| 20260504192855 | 53 | 348 | 11.3 | 19.1 | 0.00 | 0.00 | 0.00 | 15 | 1016.1 |
| 20260504192352 | 56 | 12 | 6.1 | 9.6 | 0.00 | 0.00 | 0.00 | 15 | 1016.6 |
| 20260504191850 | 55 | 50 | 3.5 | 7.8 | 0.00 | 0.00 | 0.00 | 15 | 1016.7 |
| 20260504191348 | 55 | 47 | 5.2 | 13.9 | 0.00 | 0.00 | 0.00 | 15 | 1016.6 |
| 20260504190843 | 55 | 26 | 0.9 | 8.7 | 0.00 | 0.00 | 0.00 | 15 | 1016.5 |
| 20260504190339 | 56 | 0 | 0.0 | 7.8 | 0.00 | 0.00 | 0.00 | 15 | 1016.5 |
| 20260504185836 | 55 | 346 | 16.5 | 16.5 | 0.00 | 0.00 | 0.00 | 15 | 1016.7 |
| 20260504185333 | 55 | 111 | 2.6 | 14.8 | 0.00 | 0.00 | 0.00 | 15 | 1016.6 |
| 20260504184829 | 55 | 54 | 7.0 | 11.3 | 0.00 | 0.00 | 0.00 | 15 | 1016.5 |
| 20260504184325 | 56 | 240 | 0.9 | 5.2 | 0.00 | 0.00 | 0.00 | 15 | 1017.0 |
| 20260504183821 | 55 | 341 | 6.1 | 8.7 | 0.00 | 0.00 | 0.00 | 15 | 1016.9 |
| 20260504183319 | 55 | 67 | 6.1 | 11.3 | 0.00 | 0.00 | 0.00 | 15 | 1017.0 |
| 20260504182817 | 54 | 278 | 4.3 | 13.0 | 0.00 | 0.00 | 0.00 | 15 | 1017.0 |
| 20260504182314 | 54 | 312 | 12.2 | 13.9 | 0.00 | 0.00 | 0.00 | 15 | 1017.0 |
| 20260504181810 | 56 | 2 | 5.2 | 8.7 | 0.00 | 0.00 | 0.00 | 15 | 1017.2 |
| 20260504181308 | 54 | 103 | 6.1 | 6.1 | 0.00 | 0.00 | 0.00 | 15 | 1017.4 |
| 20260504180807 | 55 | 45 | 4.3 | 11.3 | 0.00 | 0.00 | 0.00 | 15 | 1017.2 |
| 20260504180305 | 54 | 328 | 4.3 | 13.0 | 0.00 | 0.00 | 0.00 | 15 | 1017.5 |
| 20260504175802 | 53 | 315 | 5.2 | 5.2 | 0.00 | 0.00 | 0.00 | 15 | 1017.4 |
| 20260504175259 | 53 | 348 | 8.7 | 11.3 | 0.00 | 0.00 | 0.00 | 15 | 1017.7 |
| 20260504174757 | 54 | 310 | 10.4 | 12.2 | 0.00 | 0.00 | 0.00 | 15 | 1017.4 |
| 20260504174255 | 53 | 317 | 4.3 | 12.2 | 0.00 | 0.00 | 0.00 | 15 | 1017.6 |
| 20260504173751 | 54 | 19 | 8.7 | 10.4 | 0.00 | 0.00 | 0.00 | 15 | 1017.7 |
| 20260504173248 | 50 | 336 | 3.5 | 16.5 | 0.00 | 0.00 | 0.00 | 15 | 1017.6 |
| 20260504172745 | 54 | 47 | 5.2 | 10.4 | 0.00 | 0.00 | 0.00 | 15 | 1017.6 |
| 20260504172241 | 54 | 338 | 6.1 | 7.8 | 0.00 | 0.00 | 0.00 | 15 | 1017.7 |
| 20260504171737 | 53 | 41 | 6.1 | 9.6 | 0.00 | 0.00 | 0.00 | 15 | 1018.0 |
| 20260504171235 | 53 | 25 | 4.3 | 6.1 | 0.00 | 0.00 | 0.00 | 15 | 1017.9 |
| 20260504170732 | 52 | 65 | 1.7 | 10.4 | 0.00 | 0.00 | 0.00 | 15 | 1017.9 |
| 20260504170229 | 53 | 68 | 2.6 | 9.6 | 0.00 | 0.00 | 0.00 | 15 | 1017.9 |
| 20260504160147 | 52 | 237 | 4.3 | 15.6 | 0.00 | 0.00 | 0.00 | 15 | 1017.7 |
| 20260504151115 | 51 | 338 | 11.3 | 20.9 | 0.00 | 0.00 | 0.00 | 15 | 1016.5 |
| 20260504150612 | 51 | 335 | 12.2 | 20.9 | 0.00 | 0.00 | 0.00 | 15 | 1016.2 |
| 20260504150109 | 52 | 348 | 3.5 | 14.8 | 0.00 | 0.00 | 0.00 | 15 | 1016.2 |
| 20260504141038 | 51 | 342 | 11.3 | 20.0 | 0.00 | 0.00 | 0.00 | 15 | 1015.3 |
| 20260504140534 | 51 | 313 | 11.3 | 17.4 | 0.00 | 0.00 | 0.00 | 15 | 1015.4 |
| 20260504130459 | 50 | 295 | 14.8 | 18.2 | 0.00 | 0.00 | 0.00 | 15 | 1013.6 |
| 20260504110346 | 46 | 244 | 4.3 | 7.0 | 0.00 | 0.00 | 0.00 | 15 | 1013.2 |
| 20260504100303 | 46 | 325 | 2.6 | 4.3 | 0.00 | 0.00 | 0.00 | 15 | 1013.4 |
| 20260504081657 | 47 | 238 | 10.4 | 13.0 | 0.00 | 0.00 | 0.00 | 15 | 1013.6 |
| 20260504081153 | 47 | 224 | 8.7 | 11.3 | 0.00 | 0.00 | 0.00 | 15 | 1013.6 |
| 20260504080649 | 47 | 236 | 7.0 | 12.2 | 0.00 | 0.00 | 0.00 | 15 | 1013.9 |
| 20260504080146 | 48 | 228 | 9.6 | 13.0 | 0.00 | 0.00 | 0.00 | 15 | 1013.9 |
| 20260504070114 | 48 | 242 | 13.0 | 13.0 | 0.00 | 0.00 | 0.00 | 15 | 1014.2 |
| 20260504050502 | 49 | 245 | 6.1 | 9.6 | 0.00 | 0.00 | 0.00 | 15 | 1015.0 |
| 20260504045959 | 50 | 254 | 7.8 | 11.3 | 0.00 | 0.00 | 0.00 | 15 | 1015.4 |
| 20260504045455 | 50 | 238 | 9.6 | 12.2 | 0.00 | 0.00 | 0.00 | 15 | 1015.2 |
| 20260504044951 | 50 | 249 | 5.2 | 12.2 | 0.00 | 0.00 | 0.00 | 15 | 1015.5 |
| 20260504044449 | 50 | 251 | 7.8 | 11.3 | 0.00 | 0.00 | 0.00 | 15 | 1015.4 |
| 20260504043946 | 51 | 247 | 8.7 | 12.2 | 0.00 | 0.00 | 0.00 | 15 | 1015.5 |
| 20260504043443 | 51 | 266 | 6.1 | 12.2 | 0.00 | 0.00 | 0.00 | 15 | 1015.4 |
| 20260504042941 | 51 | 247 | 8.7 | 8.7 | 0.00 | 0.00 | 0.00 | 15 | 1015.5 |
| 20260504042437 | 51 | 262 | 4.3 | 7.0 | 0.00 | 0.00 | 0.00 | 15 | 1015.7 |
| 20260504041934 | 51 | 283 | 5.2 | 8.7 | 0.00 | 0.00 | 0.00 | 15 | 1015.7 |
| 20260504041430 | 51 | 247 | 7.8 | 9.6 | 0.00 | 0.00 | 0.00 | 15 | 1015.9 |
| 20260504040926 | 52 | 257 | 9.6 | 10.4 | 0.00 | 0.00 | 0.00 | 15 | 1015.7 |
| 20260504040424 | 52 | 248 | 7.8 | 10.4 | 0.00 | 0.00 | 0.00 | 15 | 1015.9 |
| 20260504035919 | 52 | 247 | 7.8 | 11.3 | 0.00 | 0.00 | 0.00 | 15 | 1015.7 |
| 20260504035417 | 52 | 244 | 7.0 | 9.6 | 0.00 | 0.00 | 0.00 | 15 | 1015.9 |
| 20260504034914 | 53 | 241 | 7.8 | 8.7 | 0.00 | 0.00 | 0.00 | 15 | 1015.9 |
| 20260504034412 | 53 | 245 | 6.1 | 7.0 | 0.00 | 0.00 | 0.00 | 15 | 1016.0 |
| 20260504033908 | 53 | 250 | 8.7 | 9.6 | 0.00 | 0.00 | 0.00 | 15 | 1015.6 |
| 20260504033406 | 53 | 257 | 6.1 | 8.7 | 0.00 | 0.00 | 0.00 | 15 | 1015.7 |
| 20260504032903 | 53 | 259 | 5.2 | 7.0 | 0.00 | 0.00 | 0.00 | 15 | 1015.6 |
| 20260504032400 | 54 | 270 | 4.3 | 7.0 | 0.00 | 0.00 | 0.00 | 15 | 1015.9 |
| 20260504031856 | 53 | 244 | 6.1 | 7.0 | 0.00 | 0.00 | 0.00 | 15 | 1015.9 |
| 20260504031353 | 54 | 270 | 4.3 | 6.1 | 0.00 | 0.00 | 0.00 | 15 | 1016.0 |
| 20260504030849 | 53 | 259 | 4.3 | 6.1 | 0.00 | 0.00 | 0.00 | 15 | 1015.9 |
| 20260504030347 | 54 | 270 | 4.3 | 7.0 | 0.00 | 0.00 | 0.00 | 15 | 1015.5 |
| 20260504025843 | 53 | 263 | 4.3 | 6.1 | 0.00 | 0.00 | 0.00 | 15 | 1015.7 |
| 20260504025340 | 54 | 278 | 4.3 | 5.2 | 0.00 | 0.00 | 0.00 | 15 | 1015.9 |
| 20260504024837 | 53 | 266 | 4.3 | 4.3 | 0.00 | 0.00 | 0.00 | 15 | 1015.9 |
| 20260504024333 | 53 | 261 | 3.5 | 6.1 | 0.00 | 0.00 | 0.00 | 15 | 1015.5 |
| 20260504023830 | 54 | 275 | 3.5 | 6.1 | 0.00 | 0.00 | 0.00 | 15 | 1015.6 |
| 20260504023327 | 53 | 281 | 3.5 | 5.2 | 0.00 | 0.00 | 0.00 | 15 | 1015.6 |
| 20260504022822 | 53 | 275 | 2.6 | 5.2 | 0.00 | 0.00 | 0.00 | 15 | 1015.9 |
| 20260504022320 | 53 | 260 | 3.5 | 5.2 | 0.00 | 0.00 | 0.00 | 15 | 1015.9 |
| 20260504021816 | 54 | 261 | 2.6 | 5.2 | 0.00 | 0.00 | 0.00 | 15 | 1015.6 |
| 20260504021314 | 54 | 265 | 3.5 | 4.3 | 0.00 | 0.00 | 0.00 | 15 | 1015.7 |
| 20260504020811 | 53 | 286 | 2.6 | 2.6 | 0.00 | 0.00 | 0.00 | 15 | 1015.6 |
| 20260504020307 | 53 | 270 | 0.9 | 2.6 | 0.00 | 0.00 | 0.00 | 15 | 1015.6 |
| 20260504015803 | 54 | 270 | 1.7 | 2.6 | 0.00 | 0.00 | 0.00 | 15 | 1015.5 |
| 20260504015300 | 56 | 265 | 0.0 | 1.7 | 0.00 | 0.00 | 0.00 | 15 | 1015.4 |
| 20260504014755 | 57 | 234 | 0.9 | 2.6 | 0.00 | 0.00 | 0.00 | 15 | 1015.7 |
| 20260504014252 | 59 | 229 | 1.7 | 2.6 | 0.00 | 0.00 | 0.00 | 15 | 1015.4 |
| 20260504013750 | 61 | 274 | 2.6 | 2.6 | 0.00 | 0.00 | 0.00 | 15 | 1015.6 |
| 20260504013247 | 64 | 291 | 0.9 | 1.7 | 0.00 | 0.00 | 0.00 | 15 | 1015.9 |
| 20260504012743 | 64 | 254 | 1.7 | 1.7 | 0.00 | 0.00 | 0.00 | 15 | 1015.9 |
| 20260504012242 | 64 | 252 | 1.7 | 2.6 | 0.00 | 0.00 | 0.00 | 15 | 1015.9 |
| 20260504011738 | 66 | 255 | 1.7 | 1.7 | 0.00 | 0.00 | 0.00 | 15 | 1015.4 |
| 20260504011235 | 66 | 254 | 0.0 | 0.0 | 0.00 | 0.00 | 0.00 | 15 | 1015.9 |
| 20260504010731 | 64 | 300 | 0.9 | 2.6 | 0.00 | 0.00 | 0.00 | 15 | 1015.9 |
| 20260504010227 | 64 | 315 | 4.3 | 4.3 | 0.00 | 0.00 | 0.00 | 15 | 1016.1 |
| 20260504005724 | 64 | 317 | 3.5 | 3.5 | 0.00 | 0.00 | 0.00 | 15 | 1016.1 |
| 20260504005221 | 64 | 341 | 0.0 | 4.3 | 0.00 | 0.00 | 0.00 | 15 | 1016.0 |
| 20260504004718 | 65 | 23 | 0.9 | 2.6 | 0.00 | 0.00 | 0.00 | 15 | 1016.0 |